Have a Safe July 4th! 

Flight Track Log - Related Links

Times and Time Zones

All times are in EDT time to prevent confusion due to time zone crossing. See the N760XJ flight status page for this flight to view local times or setup timezone preferences in your user account.

Time Position Orientation Groundspeed Altitude Reporting Facility
EDT Latitude Longitude Course Direction KTS MPH feet Rate Location/Type
Fri 03:58:00 PM 41.5333 -74.0333 45° Northeast 234 269 4,200  Level New York TRACON
Fri 03:59:01 PM 41.5833 -73.9667 77° East 258 297 5,000 397 Climbing New York TRACON
Fri 04:00:01 PM 41.6000 -73.8667 75° East 262 302 5,000  Level New York TRACON
Fri 04:00:55 PM 41.6167 -73.7833 90° East 260 299 5,000  Level New York TRACON
Fri 04:01:55 PM 41.6167 -73.7000 114° Southeast 259 298 5,000  Level New York TRACON
Fri 04:02:55 PM 41.5833 -73.6000 118° Southeast 257 296 5,000 -400 Level New York TRACON
Fri 04:03:55 PM 41.5500 -73.5167 135° Southeast 255 293 4,200 -476 Descending New York TRACON
Fri 04:05:01 PM 41.5000 -73.4500 143° Southeast 243 280 4,000 -95 Descending New York TRACON
Fri 04:06:01 PM 41.4500 -73.4000 151° Southeast 245 282 4,000  Level New York TRACON
Fri 04:07:01 PM 41.3833 -73.3500 135° Southeast 250 288 4,000  Level New York TRACON
Fri 04:08:01 PM 41.3333 -73.2833 143° Southeast 247 284 4,000  Level New York TRACON
Fri 04:09:02 PM 41.2833 -73.2333 151° Southeast 249 287 4,000  Level New York TRACON
Fri 04:10:01 PM 41.2167 -73.1833 143° Southeast 244 281 4,000  Level New York TRACON
Fri 04:11:02 PM 41.1667 -73.1333 135° Southeast 243 280 4,000  Level New York TRACON
Fri 04:12:02 PM 41.1167 -73.0667 143° Southeast 240 276 4,000  Level New York TRACON
Fri 04:13:02 PM 41.0667 -73.0167 217° Southwest 269 310 4,000  Level New York TRACON
Fri 04:14:08 PM 41.0000 -73.0833 217° Southwest 282 325 4,000 -300 Level New York TRACON
Fri 04:15:02 PM 40.9500 -73.1333 217° Southwest 262 302 3,400 -526 Descending New York TRACON
Fri 04:16:02 PM 40.8833 -73.2000 255° West 253 291 3,000 -200 Descending New York TRACON
Fri 04:17:02 PM 40.8667 -73.2833 270° West 257 296 3,000  Level New York TRACON
Fri 04:18:02 PM 40.8667 -73.3667 270° West 251 289 3,000 -100 Level New York TRACON
Fri 04:19:02 PM 40.8667 -73.4667 252° West 231 266 2,800 -450 Descending New York TRACON
Fri 04:20:02 PM 40.8500 -73.5333 201° Southwest 212 244 2,100 -400 Descending New York TRACON
Fri 04:21:02 PM 40.8167 -73.5500 123° Southeast 208 239 2,000 -248 Descending New York TRACON
Fri 04:22:03 PM 40.7833 -73.4833 123° Southeast 166 191 1,600 -545 Descending New York TRACON
Fri 04:23:03 PM 40.7667 -73.4500 143° Southeast 119 137 900 -700 Descending New York TRACON
Fri 04:30:52 PM 40.7167 -73.4000 320° Northwest  Level FlightAware Approximate
Fri 04:31:52 PM 40.7674 -73.4563 320° Northwest  Level Estimated

Login

Don't have an account? Register now (free) for customized features, flight alerts, and more!